Flag for Australia Weather past 2 weeks in Melbourne, Victoria, Australia

Now
43 °F

Sunny.


Feels Like: 36 °F
Forecast: 44 / 55 °F
Wind: 13 mph from North

Location: Melbourne Airport

Current Time: Aug 2, 2015 at 8:16:31 AM

Latest Report: Aug 2, 2015 at 7:30 AM


Visibility: 10 mi

Pressure: 29.92 "Hg

Humidity: 71%

Dew point: 34 °F

Location of MelbourneLocation

Historic Weather in Melbourne — Graph

°F

Melbourne temperature yesterday

Maximum temperature yesterday: 52 °F (at 2:30 PM)
Minimum temperature yesterday: 43 °F (at 8:30 PM)
Average temperature yesterday: 48 °F

Past Weeks' High & Low Weather Summary

 TemperatureHumidityPressure
High59 °F (Jul 21, 12:30 PM)100% (Jul 18, 6:00 AM)30.57 "Hg (Jul 18, 6:00 AM)
Low30 °F (Jul 20, 6:30 AM)41% (Jul 19, 3:00 PM)29.74 "Hg (Jul 25, 11:30 PM)
Average48 °F72%30.18 "Hg
* Reported Jul 18 6:00 AM — Aug 2 6:30 AM, Melbourne, Weather by CustomWeather, © 2015

Note: Actual official high and low records may vary slightly from our data, if they occured in-between our weather recording intervals... More about our weather records

Advertising

Melbourne weather history for previous 24 hours

 ConditionsComfort  
Time TempWeatherWind HumidityBarometerVisibility
6:30 AM
Sun, Aug 2
45 °FSunny.10 mph66%29.92 "Hg10 mi
6:00 AM45 °FClear.10 mph66%29.92 "Hg10 mi
5:30 AM45 °FClear.10 mph66%29.92 "Hg10 mi
5:00 AM45 °FPassing clouds.9 mph66%29.92 "HgN/A
4:30 AM45 °FClear.8 mph66%29.92 "Hg10 mi
4:00 AM45 °FPassing clouds.10 mph66%29.92 "HgN/A
3:30 AM45 °FOvercast.10 mph66%29.92 "HgN/A
3:00 AM45 °FOvercast.12 mph66%29.95 "HgN/A
2:30 AM45 °FPassing clouds.9 mph66%29.95 "HgN/A
2:00 AM45 °FPassing clouds.10 mph71%29.95 "HgN/A
1:30 AM45 °FPassing clouds.9 mph71%29.98 "HgN/A
1:00 AM45 °FPassing clouds.10 mph76%29.98 "HgN/A
12:30 AM45 °FPartly cloudy.10 mph71%29.98 "HgN/A
12:00 AM45 °FPassing clouds.8 mph71%30.01 "HgN/A
11:30 PM
Sat, Aug 1
45 °FPassing clouds.10 mph71%30.01 "HgN/A
11:00 PM45 °FPassing clouds.9 mph71%29.98 "HgN/A
10:30 PM45 °FMostly cloudy.9 mph71%30.01 "HgN/A
10:00 PM43 °FOvercast.10 mph81%30.01 "HgN/A
9:30 PM45 °FOvercast.8 mph71%30.01 "HgN/A
9:00 PM46 °FClear.7 mph62%30.01 "Hg10 mi
8:30 PM43 °FClear.7 mph76%30.01 "Hg10 mi
8:00 PM45 °FClear.6 mph71%29.98 "Hg10 mi
7:30 PM46 °FClear.6 mph57%30.01 "Hg10 mi
7:00 PM46 °FClear.6 mph62%29.98 "Hg10 mi
6:30 PM45 °FOvercast.6 mph71%29.98 "HgN/A
6:00 PM46 °FOvercast.7 mph62%29.98 "HgN/A
5:30 PM46 °FOvercast.5 mph62%29.98 "HgN/A
5:00 PM48 °FOvercast.6 mph54%29.98 "HgN/A
4:30 PM50 °FOvercast.8 mph50%29.95 "HgN/A
4:00 PM50 °FOvercast.8 mph58%29.95 "HgN/A
3:30 PM50 °FOvercast.9 mph58%29.95 "HgN/A
3:00 PM52 °FOvercast.10 mph50%29.95 "HgN/A
2:30 PM52 °FOvercast.7 mph50%29.95 "HgN/A
2:00 PM50 °FBroken clouds.8 mph67%29.95 "HgN/A
1:00 PM50 °FBroken clouds.10 mph67%29.95 "HgN/A
12:30 PM50 °FBroken clouds.8 mph67%29.95 "HgN/A
12:00 PM50 °FDrizzle. Mostly cloudy.9 mph71%29.95 "HgN/A
11:30 AM50 °FMore clouds than sun.10 mph71%29.95 "HgN/A
11:00 AM50 °FOvercast.10 mph76%29.95 "HgN/A
10:30 AM48 °FOvercast.12 mph87%29.95 "HgN/A
10:00 AM48 °FPartly sunny.14 mph82%29.95 "HgN/A
9:30 AM48 °FBroken clouds.14 mph87%29.92 "HgN/A
9:00 AM48 °FPartly sunny.14 mph82%29.89 "HgN/A
8:30 AM48 °FSprinkles. Partly sunny.20 mph87%29.89 "HgN/A
8:00 AM50 °FPartly sunny.18 mph82%29.83 "HgN/A
Weather by CustomWeather, © 2015

See weather overviewHow to use our weather pages